Klawock, AK

5:53 PM AKDT on April 28, 2017 (GMT -0800)
Klawock

Weather History for PAKW - January, 2014

Change the Weather History Date:

Saturday, January 18, 2014

  Actual Average Record
Temperature  
Mean Temperature 44 °F -  
Max Temperature 50 °F 37 °F 59 °F (2009)
Min Temperature 35 °F 29 °F 7 °F (2012)
Degree Days  
Heating Degree Days 22    
Moisture  
Dew Point 41 °F    
Average Humidity 91    
Maximum Humidity 100    
Minimum Humidity 52    
Precipitation  
Precipitation 0.35 in - - ()
Sea Level Pressure  
Sea Level Pressure 29.92 in    
Wind  
Wind Speed 6 mph (SSW)    
Max Wind Speed 8 mph    
Max Gust Speed 17 mph    
Visibility 8 miles    
Events Rain    
Averages and records for this station are not official NWS values.
T = Trace of Precipitation, MM = Missing Value Source: NWS Daily Summary

Daily Weather History Graph

Daily Weather History Graph

Search for Another Location

Airport or City:

Trip Planner

Search our weather history database for the weather conditions in past years. The results will help you decide how hot, cold, wet, or windy it might be!

Date:

Astronomy

Jan. 18, 2014 Rise Set
Actual Time 8:07 AM AKST 3:58 PM AKST
Civil Twilight 7:24 AM AKST 4:42 PM AKST
Nautical Twilight 6:37 AM AKST 5:28 PM AKST
Astronomical Twilight 5:53 AM AKST 6:12 PM AKST
Moon 7:26 PM AKST (1/18) 8:36 AM AKST (1/18)
Length of Visible Light 9h 18m
Length of Day
7h 51m
Waning Gibbous, 94% of the Moon is Illuminated
Jan 18
Waning Gibbous
Jan 23
Last Quarter
Jan 30
New
Feb 6
First Quarter
Feb 14
Full

Hourly Weather History & Observations

Time (AKST) Temp. Windchill Dew Point Humidity Pressure Visibility Wind Dir Wind Speed Gust Speed Precip Events Conditions
12:53 AM 50.0 °F - 33.1 °F 52% 29.68 in 10.0 mi Variable 3.5 mph - N/A   Overcast
1:53 AM 48.9 °F - 36.0 °F 61% 29.66 in 10.0 mi SE 8.1 mph 17.3 mph N/A   Overcast
3:53 AM 45.0 °F 41.2 °F 42.1 °F 90% 29.67 in 9.0 mi Variable 6.9 mph - 0.04 in Rain Light Rain
4:53 AM 45.0 °F 43.5 °F 43.0 °F 93% 29.64 in 8.0 mi Variable 3.5 mph - 0.02 in   Overcast
5:53 AM 46.0 °F 41.9 °F 44.1 °F 93% 29.66 in 7.0 mi South 8.1 mph - 0.07 in Rain Light Rain
6:05 AM 46.0 °F 42.5 °F 44.1 °F 93% 29.66 in 10.0 mi Variable 6.9 mph - 0.00 in Rain Light Rain
6:53 AM 46.0 °F 43.1 °F 45.0 °F 96% 29.71 in 4.0 mi South 5.8 mph - 0.09 in Rain Rain
7:29 AM 46.0 °F 42.5 °F 45.0 °F 96% 29.73 in 5.0 mi SSW 6.9 mph - 0.06 in Rain Light Rain
7:53 AM 46.0 °F 42.5 °F 45.0 °F 96% 29.75 in 8.0 mi SSW 6.9 mph - 0.08 in Rain Light Rain
8:14 AM 45.0 °F 40.6 °F 44.1 °F 97% 29.78 in 4.0 mi SSW 8.1 mph - 0.02 in Rain Rain
8:19 AM 45.0 °F 41.2 °F 44.1 °F 97% 29.78 in 2.5 mi SSW 6.9 mph - 0.04 in Rain Rain
8:24 AM 45.0 °F 41.2 °F 44.1 °F 97% 29.79 in 3.0 mi SSW 6.9 mph - 0.04 in Rain Light Rain
8:49 AM 44.6 °F 42.2 °F 44.6 °F 100% 29.80 in 3.0 mi SSW 4.6 mph - 0.04 in   Overcast
8:53 AM 45.0 °F 42.6 °F 44.1 °F 97% 29.81 in 4.0 mi South 4.6 mph - 0.04 in   Overcast
9:32 AM 44.1 °F 40.1 °F 44.1 °F 100% 29.83 in 2.0 mi SSW 6.9 mph - 0.01 in Rain Light Rain
9:40 AM 45.0 °F 41.2 °F 44.1 °F 97% 29.84 in 8.0 mi South 6.9 mph - 0.01 in   Overcast
9:53 AM 45.0 °F 40.6 °F 44.1 °F 97% 29.85 in 10.0 mi South 8.1 mph - 0.01 in   Overcast
10:00 AM 45.0 °F 41.2 °F 44.1 °F 97% 29.86 in 10.0 mi SSW 6.9 mph - N/A   Overcast
10:27 AM 44.1 °F 39.5 °F 44.1 °F 100% 29.89 in 9.0 mi SW 8.1 mph - 0.00 in Rain Light Rain
10:53 AM 44.1 °F 40.1 °F 44.1 °F 100% 29.92 in 9.0 mi SSW 6.9 mph - 0.00 in   Overcast
11:53 AM 45.0 °F 40.6 °F 43.0 °F 93% 29.96 in 10.0 mi SSW 8.1 mph - N/A   Mostly Cloudy
12:06 PM 45.0 °F 41.8 °F 42.1 °F 90% 29.96 in 10.0 mi SSW 5.8 mph - N/A   Scattered Clouds
12:53 PM 44.1 °F 40.1 °F 42.1 °F 93% 29.98 in 10.0 mi SW 6.9 mph - N/A   Clear
1:53 PM 44.1 °F 40.8 °F 39.0 °F 82% 30.00 in 10.0 mi SSW 5.8 mph - N/A   Mostly Cloudy
2:48 PM 42.8 °F 38.6 °F 39.2 °F 87% 30.01 in 10.0 mi South 6.9 mph - 0.00 in   Mostly Cloudy
2:53 PM 43.0 °F 39.5 °F 39.9 °F 89% 30.01 in 10.0 mi South 5.8 mph - 0.00 in   Mostly Cloudy
3:31 PM 42.1 °F 39.2 °F 39.9 °F 92% 30.02 in 10.0 mi South 4.6 mph - N/A   Mostly Cloudy
3:53 PM 42.1 °F 38.4 °F 39.0 °F 89% 30.03 in 10.0 mi South 5.8 mph - N/A   Mostly Cloudy
4:53 PM 42.1 °F 39.2 °F 39.0 °F 89% 30.04 in 10.0 mi South 4.6 mph - N/A   Mostly Cloudy
5:18 PM 41.0 °F 39.0 °F 37.9 °F 89% 30.04 in 10.0 mi SSW 3.5 mph - N/A   Overcast
5:53 PM 41.0 °F 37.1 °F 39.0 °F 93% 30.05 in 10.0 mi SW 5.8 mph - N/A   Overcast
6:24 PM 41.0 °F 38.0 °F 37.9 °F 89% 30.06 in 10.0 mi SSW 4.6 mph - N/A   Mostly Cloudy
6:53 PM 41.0 °F 39.0 °F 37.9 °F 89% 30.07 in 10.0 mi Variable 3.5 mph - N/A   Mostly Cloudy
7:00 PM 41.0 °F 37.1 °F 37.9 °F 89% 30.07 in 10.0 mi South 5.8 mph - N/A   Overcast
7:07 PM 39.9 °F 36.7 °F 37.9 °F 93% 30.07 in 10.0 mi SSW 4.6 mph - N/A   Overcast
7:53 PM 41.0 °F 37.1 °F 37.9 °F 89% 30.09 in 10.0 mi Variable 5.8 mph - N/A   Mostly Cloudy
8:17 PM 39.9 °F 36.7 °F 37.0 °F 89% 30.08 in 10.0 mi SSW 4.6 mph - 0.00 in   Scattered Clouds
8:27 PM 39.9 °F 36.7 °F 37.0 °F 89% 30.08 in 10.0 mi Variable 4.6 mph - 0.00 in   Mostly Cloudy
8:53 PM 39.0 °F 35.7 °F 37.0 °F 93% 30.09 in 10.0 mi South 4.6 mph - 0.00 in   Partly Cloudy
9:53 PM 37.0 °F 33.3 °F 36.0 °F 96% 30.11 in 10.0 mi SSW 4.6 mph - N/A   Mostly Cloudy
10:40 PM 39.0 °F 36.8 °F 36.0 °F 89% 30.11 in 10.0 mi South 3.5 mph - N/A   Scattered Clouds
10:53 PM 37.9 °F 35.5 °F 36.0 °F 93% 30.12 in 10.0 mi SSW 3.5 mph - N/A   Clear
11:53 PM 35.1 °F - 35.1 °F 100% 30.13 in 10.0 mi Calm Calm - N/A   Scattered Clouds